WZZ1KF LCPH-LDZA

Flight info

Callsign WZZ1KF
Flight time N/A
Altitude 34000
Route GENOS DCT PEDER DCT LUTIG DCT EXELA UN127 RIKSO DCT FSK DCT DISOR DCT LONTA UL608 DOLEV DCT TIVNU DCT TEBLI
Aircraft A321/M-SDE3FGHIRWY/LB1

Departure

Time N/A
Airport Paphos International Airport (LCPH)

Arrival

Time 2026-04-29 20:43
Airport Zagreb Franjo Tuđman International Airport (LDZA)
Time Latitude Longitude Altitude Speed Heading
2026-04-29 20:14 45.08109 17.00692 33988 ft 418 kts 14°
2026-04-29 20:14 45.10840 17.02041 33989 ft 417 kts 27°
2026-04-29 20:14 45.13268 17.04270 33988 ft 417 kts 41°
2026-04-29 20:14 45.15200 17.07238 33988 ft 417 kts 56°
2026-04-29 20:15 45.16581 17.10836 33990 ft 416 kts 70°
2026-04-29 20:15 45.17316 17.14793 33988 ft 416 kts 83°
2026-04-29 20:15 45.17381 17.18881 33990 ft 416 kts 97°
2026-04-29 20:15 45.16756 17.22869 33989 ft 415 kts 111°
2026-04-29 20:16 45.15472 17.26522 33985 ft 415 kts 124°
2026-04-29 20:16 45.13785 17.29828 33982 ft 415 kts 128°
2026-04-29 20:16 45.10034 17.35982 33982 ft 416 kts 133°
2026-04-29 20:17 45.06079 17.41970 33986 ft 417 kts 133°
2026-04-29 20:17 45.02175 17.48030 33991 ft 417 kts 133°
2026-04-29 20:18 44.99961 17.50664 33793 ft 415 kts 151°
2026-04-29 20:18 44.97308 17.52191 33548 ft 412 kts 167°
2026-04-29 20:18 44.94479 17.52751 33298 ft 411 kts 179°
2026-04-29 20:18 44.91676 17.52473 33052 ft 409 kts 191°
2026-04-29 20:19 44.88956 17.51348 32801 ft 407 kts 204°
2026-04-29 20:19 44.86511 17.49367 32550 ft 405 kts 218°
2026-04-29 20:19 44.84493 17.46614 32294 ft 408 kts 233°
2026-04-29 20:19 44.83062 17.43109 32049 ft 420 kts 250°
2026-04-29 20:20 44.82429 17.39048 31804 ft 433 kts 269°
2026-04-29 20:20 44.82766 17.34797 31554 ft 445 kts 288°
2026-04-29 20:20 44.84102 17.30841 31303 ft 452 kts 304°
2026-04-29 20:20 44.85916 17.27181 31058 ft 457 kts 305°
2026-04-29 20:21 44.87729 17.23559 30808 ft 459 kts 305°
2026-04-29 20:21 44.89572 17.19877 30553 ft 460 kts 305°
2026-04-29 20:21 44.91416 17.16178 30302 ft 461 kts 305°
2026-04-29 20:21 44.93258 17.12464 30056 ft 462 kts 305°
2026-04-29 20:22 44.95093 17.08751 29802 ft 461 kts 305°
2026-04-29 20:22 44.96997 17.05107 29547 ft 461 kts 310°
2026-04-29 20:22 44.99099 17.01701 29299 ft 460 kts 311°
2026-04-29 20:22 45.01205 16.98311 29047 ft 458 kts 311°
2026-04-29 20:23 45.03273 16.94978 28797 ft 455 kts 311°
2026-04-29 20:23 45.05346 16.91631 28282 ft 451 kts 311°
2026-04-29 20:23 45.07402 16.88304 27705 ft 447 kts 311°
2026-04-29 20:23 45.09440 16.85002 27139 ft 444 kts 311°
2026-04-29 20:24 45.11462 16.81722 26576 ft 440 kts 311°
2026-04-29 20:24 45.13465 16.78471 26020 ft 437 kts 311°
2026-04-29 20:24 45.15455 16.75241 25465 ft 433 kts 311°
2026-04-29 20:24 45.17425 16.72035 24921 ft 429 kts 311°
2026-04-29 20:25 45.19347 16.68897 24387 ft 425 kts 311°
2026-04-29 20:25 45.21290 16.65760 23853 ft 421 kts 312°
2026-04-29 20:25 45.23269 16.62716 23338 ft 417 kts 313°
2026-04-29 20:25 45.25266 16.59755 22817 ft 414 kts 314°
2026-04-29 20:26 45.27260 16.56845 22318 ft 410 kts 314°
2026-04-29 20:26 45.29242 16.53956 21827 ft 406 kts 314°
2026-04-29 20:26 45.31198 16.51082 21356 ft 403 kts 314°
2026-04-29 20:26 45.33128 16.48215 20890 ft 400 kts 313°
2026-04-29 20:27 45.35037 16.45356 20427 ft 397 kts 313°
2026-04-29 20:27 45.36288 16.43473 20122 ft 395 kts 313°
2026-04-29 20:27 45.38771 16.39733 19614 ft 388 kts 313°
2026-04-29 20:27 45.40594 16.36980 19480 ft 376 kts 313°
2026-04-29 20:28 45.42354 16.34316 19352 ft 363 kts 313°
2026-04-29 20:28 45.44055 16.31744 19223 ft 351 kts 313°
2026-04-29 20:28 45.45683 16.29289 19099 ft 339 kts 313°
2026-04-29 20:28 45.47275 16.26888 18964 ft 328 kts 313°
2026-04-29 20:29 45.48815 16.24564 18847 ft 317 kts 313°
2026-04-29 20:29 45.50308 16.22310 18633 ft 310 kts 313°
2026-04-29 20:29 45.51766 16.20103 18213 ft 310 kts 313°
2026-04-29 20:29 45.53233 16.17880 17916 ft 306 kts 313°
2026-04-29 20:30 45.54688 16.15669 17542 ft 305 kts 313°
2026-04-29 20:30 45.56147 16.13483 17179 ft 303 kts 317°
2026-04-29 20:30 45.57922 16.11925 16820 ft 300 kts 343°
2026-04-29 20:30 45.59971 16.11621 16435 ft 297 kts
2026-04-29 20:31 45.61893 16.12606 16048 ft 295 kts 35°
2026-04-29 20:31 45.63395 16.14587 15646 ft 295 kts 47°
2026-04-29 20:31 45.64779 16.16709 15264 ft 294 kts 47°
2026-04-29 20:31 45.66167 16.18835 15150 ft 298 kts 43°
2026-04-29 20:32 45.67578 16.20993 14821 ft 296 kts 43°
2026-04-29 20:32 45.68980 16.23136 14502 ft 294 kts 43°
2026-04-29 20:32 45.70373 16.25258 14197 ft 292 kts 44°
2026-04-29 20:32 45.71290 16.26654 13995 ft 290 kts 44°
2026-04-29 20:33 45.73133 16.29464 13495 ft 289 kts 44°
2026-04-29 20:33 45.74503 16.31557 13156 ft 287 kts 44°
2026-04-29 20:33 45.75861 16.33636 12830 ft 284 kts 44°
2026-04-29 20:33 45.77203 16.35695 12452 ft 280 kts 44°
2026-04-29 20:34 45.78513 16.37707 11770 ft 279 kts 44°
2026-04-29 20:34 45.79825 16.39718 11155 ft 274 kts 44°
2026-04-29 20:34 45.81120 16.41705 10542 ft 271 kts 45°
2026-04-29 20:34 45.82396 16.43665 9909 ft 267 kts 45°
2026-04-29 20:35 45.83651 16.45595 9313 ft 262 kts 45°
2026-04-29 20:35 45.84880 16.47485 8726 ft 256 kts 45°
2026-04-29 20:35 45.86257 16.49003 8136 ft 248 kts 22°
2026-04-29 20:35 45.87921 16.49410 7550 ft 244 kts 355°
2026-04-29 20:36 45.89513 16.48622 6968 ft 246 kts 328°
2026-04-29 20:36 45.90792 16.47000 6523 ft 246 kts 321°
2026-04-29 20:36 45.92025 16.45344 6104 ft 246 kts 322°
2026-04-29 20:36 45.93278 16.43670 5705 ft 245 kts 322°
2026-04-29 20:37 45.94443 16.41837 5298 ft 255 kts 302°
2026-04-29 20:37 45.94785 16.39324 5022 ft 263 kts 262°
2026-04-29 20:37 45.94032 16.36979 4931 ft 263 kts 230°
2026-04-29 20:37 45.92811 16.35105 4812 ft 251 kts 224°
2026-04-29 20:38 45.91599 16.33337 4692 ft 247 kts 225°
2026-04-29 20:38 45.90423 16.31549 4578 ft 245 kts 226°
2026-04-29 20:38 45.89260 16.29760 4433 ft 246 kts 226°
2026-04-29 20:38 45.88114 16.28000 4133 ft 243 kts 226°
2026-04-29 20:39 45.86969 16.26243 3819 ft 240 kts 226°
2026-04-29 20:39 45.85846 16.24523 3519 ft 228 kts 226°
2026-04-29 20:39 45.84791 16.22906 3201 ft 216 kts 226°
2026-04-29 20:39 45.83800 16.21389 2899 ft 201 kts 227°
2026-04-29 20:40 45.82876 16.19977 2639 ft 188 kts 226°
2026-04-29 20:40 45.82027 16.18677 2426 ft 171 kts 227°
2026-04-29 20:40 45.81242 16.17478 2188 ft 163 kts 226°
2026-04-29 20:40 45.80474 16.16305 1953 ft 160 kts 226°
2026-04-29 20:41 45.79720 16.15153 1741 ft 157 kts 227°
2026-04-29 20:41 45.78976 16.14018 1513 ft 155 kts 227°
2026-04-29 20:41 45.78243 16.12899 1299 ft 153 kts 227°
2026-04-29 20:41 45.77526 16.11806 1083 ft 149 kts 227°
2026-04-29 20:42 45.76824 16.10737 881 ft 146 kts 227°
2026-04-29 20:42 45.76131 16.09685 679 ft 145 kts 227°
2026-04-29 20:42 45.75448 16.08641 480 ft 144 kts 227°
2026-04-29 20:42 45.74781 16.07616 366 ft 133 kts 226°
2026-04-29 20:43 45.74316 16.06909 365 ft 55 kts 227°
2026-04-29 20:43 45.74173 16.06692 363 ft 23 kts 226°
2026-04-29 20:43 45.74077 16.06548 361 ft 17 kts 226°
2026-04-29 20:43 45.74005 16.06439 361 ft 13 kts 226°
2026-04-29 20:44 45.73949 16.06356 361 ft 13 kts 226°
2026-04-29 20:44 45.73877 16.06260 362 ft 14 kts 201°
2026-04-29 20:44 45.73808 16.06307 360 ft 11 kts 138°
2026-04-29 20:44 45.73747 16.06389 359 ft 11 kts 131°
2026-04-29 20:45 45.73771 16.06476 364 ft 10 kts 49°
2026-04-29 20:45 45.73821 16.06555 362 ft 11 kts 47°
2026-04-29 20:45 45.73877 16.06640 363 ft 12 kts 46°
2026-04-29 20:45 45.73939 16.06733 359 ft 13 kts 46°
2026-04-29 20:46 45.74006 16.06834 362 ft 15 kts 47°
2026-04-29 20:46 45.74078 16.06944 359 ft 16 kts 47°
2026-04-29 20:46 45.74153 16.07059 361 ft 14 kts 46°
2026-04-29 20:46 45.74208 16.07144 359 ft 10 kts 54°
2026-04-29 20:47 45.74195 16.07234 361 ft 10 kts 136°
2026-04-29 20:47 45.74140 16.07307 363 ft 11 kts 136°
2026-04-29 20:47 45.74105 16.07355 361 ft 0 kts 136°
2026-04-29 20:49 45.74101 16.07360 366 ft 3 kts 136°
2026-04-29 20:49 45.74076 16.07394 359 ft 7 kts 136°
2026-04-29 20:49 45.74068 16.07476 361 ft 10 kts 64°
2026-04-29 20:49 45.74128 16.07569 363 ft 15 kts 46°
2026-04-29 20:50 45.74200 16.07679 364 ft 16 kts 47°
2026-04-29 20:50 45.74255 16.07761 359 ft 3 kts 46°
2026-04-29 20:50 45.74260 16.07792 359 ft 4 kts 95°
2026-04-29 20:50 45.74240 16.07830 362 ft 6 kts 134°
2026-04-29 20:51 45.74217 16.07861 359 ft 2 kts 136°
2026-04-29 20:51 45.74212 16.07869 359 ft 1 kts 136°
2026-04-29 20:51 45.74211 16.07870 359 ft 0 kts 136°
2026-04-29 20:51 45.74210 16.07871 359 ft 0 kts 136°